This is the latest recevied weather packets stored in our database for station/object OH2TI. If no packets are shown the sender has not sent any weather packets the latest 1 day(s).
| Time | Temp. | Humidity | Pressure | Rain* | Wind** | Luminosity | Snow |
|---|---|---|---|---|---|---|---|
| 1778017369 | 3.89° C | 66% | 1004.8 hPa | - | 1.34 m/s, 279° | - | - |
| 1778016494 | 3.89° C | 65% | 1004.6 hPa | - | 1.79 m/s, 255° | - | - |
| 1778016032 | 4.44° C | 64% | 1004.5 hPa | - | 1.34 m/s, 268° | - | - |
| 1778015661 | 4.44° C | 63% | 1004.5 hPa | - | 1.34 m/s, 271° | - | - |
| 1778015309 | 4.44° C | 63% | 1004.5 hPa | - | 1.34 m/s, 274° | - | - |
| 1778014752 | 4.44° C | 62% | 1004.4 hPa | - | 1.34 m/s, 264° | - | - |
| 1778014032 | 4.44° C | 61% | 1004.3 hPa | - | 1.34 m/s, 275° | - | - |
| 1778013554 | 5° C | 61% | 1004.1 hPa | - | 0.89 m/s, 285° | - | - |
| 1778012782 | 5° C | 59% | 1003.9 hPa | - | 1.79 m/s, 285° | - | - |
| 1778012089 | 5° C | 59% | 1003.9 hPa | - | 0.89 m/s, 275° | - | - |
| 1778011551 | 5.56° C | 58% | 1003.8 hPa | - | 0.89 m/s, 293° | - | - |
| 1778010689 | 5.56° C | 55% | 1003.7 hPa | - | 1.34 m/s, 290° | - | - |
| 1778010001 | 5.56° C | 53% | 1003.6 hPa | - | 2.24 m/s, 277° | - | - |
| 1778009399 | 6.11° C | 51% | 1003.6 hPa | - | 1.79 m/s, 273° | - | - |
| 1778008722 | 6.11° C | 48% | 1003.5 hPa | - | 1.79 m/s, 270° | - | - |
| 1778008152 | 6.67° C | 47% | 1003.4 hPa | - | 1.34 m/s, 268° | - | - |
| 1778007604 | 6.67° C | 46% | 1003.3 hPa | - | 1.79 m/s, 275° | - | - |
| 1778007184 | 6.67° C | 45% | 1003.3 hPa | - | 1.79 m/s, 269° | - | - |
| 1778006834 | 6.67° C | 45% | 1003.2 hPa | - | 1.79 m/s, 277° | - | - |
| 1778006489 | 7.22° C | 44% | 1003.2 hPa | - | 2.24 m/s, 284° | - | - |
| 1778005969 | 7.22° C | 43% | 1003 hPa | - | 2.68 m/s, 263° | - | - |
| 1778005334 | 7.22° C | 43% | 1002.9 hPa | - | 1.79 m/s, 274° | - | - |
| 1778004669 | 7.78° C | 43% | 1002.8 hPa | - | 0.89 m/s, 263° | - | - |
| 1778003959 | 7.78° C | 41% | 1002.7 hPa | - | 1.79 m/s, 296° | - | - |
| 1778003599 | 8.33° C | 41% | 1002.7 hPa | - | 2.24 m/s, 261° | - | - |
* Rain since midnight (hover to see other rain measurements)
** Current wind speed in m/s (hover to see current wind gust speed)